When you browse on this site, cookies collect data to enhance your experience and personalize the content and advertising you see.
Visit our Privacy Policy to learn more. By continuing to use the site, you agree to this use of cookies and data.
  • In Italy
  • List of Countries
  • For 7 days
  • Water Temperature
  • Satellite Maps
  • Weather Map
  • Weather Widgets
  • user-avatar
    Login

    Hourly Weather Abomey

    Today, 22 March, Friday

    Time Temperature Precipitation Wind Pressure Humidity
    00:00 +30°C° 0 mm 3 mps 737 mmHg 74%
    01:00 +29°C° 0 mm 2 mps 737 mmHg 74%
    02:00 +29°C° 0 mm 1 mps 737 mmHg 75%
    03:00 +29°C° 0 mm 1 mps 737 mmHg 76%
    04:00 +29°C° 0 mm 1 mps 737 mmHg 77%
    05:00 +28°C° 0 mm 2 mps 736 mmHg 77%
    06:00 +28°C° 0 mm 2 mps 736 mmHg 76%
    07:00 +30°C° 0 mm 2 mps 737 mmHg 67%
    08:00 +32°C° 0 mm 2 mps 737 mmHg 58%
    09:00 +35°C° 0 mm 2 mps 737 mmHg 49%
    10:00 +37°C° 0 mm 1 mps 737 mmHg 41%
    11:00 +41°C° 0 mm 1 mps 737 mmHg 33%
    12:00 +40°C° 0 mm 4 mps 738 mmHg 39%
    13:00 +39°C° 0 mm 3 mps 738 mmHg 35%
    14:00 +40°C° 0 mm 2 mps 737 mmHg 31%
    15:00 +41°C° 0 mm 2 mps 736 mmHg 28%
    16:00 +40°C° 0 mm 2 mps 736 mmHg 30%
    17:00 +37°C° 0 mm 1 mps 736 mmHg 33%
    18:00 +36°C° 0 mm 1 mps 736 mmHg 35%
    19:00 +36°C° 0 mm 2 mps 736 mmHg 43%
    20:00 +34°C° 0 mm 3 mps 737 mmHg 51%
    21:00 +33°C° 0 mm 3 mps 737 mmHg 60%
    22:00 +31°C° 0 mm 3 mps 737 mmHg 64%
    23:00 +31°C° 0 mm 3 mps 737 mmHg 68%

    Tomorrow, 23 March, Saturday

    Time Temperature Precipitation Wind Pressure Humidity
    00:00 +30°C° 0 mm 4 mps 737 mmHg 73%
    01:00 +30°C° 0 mm 3 mps 737 mmHg 74%
    02:00 +29°C° 0 mm 3 mps 737 mmHg 76%
    03:00 +29°C° 0 mm 3 mps 736 mmHg 77%
    04:00 +29°C° 0 mm 2 mps 737 mmHg 78%
    05:00 +29°C° 0 mm 2 mps 737 mmHg 79%
    06:00 +28°C° 0 mm 2 mps 737 mmHg 80%
    07:00 +30°C° 0 mm 2 mps 738 mmHg 73%
    08:00 +31°C° 0 mm 3 mps 738 mmHg 66%
    09:00 +34°C° 0 mm 3 mps 739 mmHg 59%
    10:00 +36°C° 0 mm 3 mps 739 mmHg 52%
    11:00 +37°C° 0 mm 2 mps 739 mmHg 46%
    12:00 +39°C° 0 mm 2 mps 738 mmHg 39%
    13:00 +38°C° 0 mm 2 mps 738 mmHg 43%
    14:00 +37°C° 0 mm 3 mps 737 mmHg 46%
    15:00 +36°C° 0 mm 3 mps 736 mmHg 50%
    16:00 +35°C° 0.1 mm 3 mps 736 mmHg 53%
    17:00 +34°C° 0.1 mm 3 mps 736 mmHg 57%
    18:00 +33°C° 0.1 mm 3 mps 736 mmHg 60%
    19:00 +31°C° 0.9 mm 3 mps 737 mmHg 64%
    20:00 +30°C° 0.9 mm 3 mps 737 mmHg 69%
    21:00 +29°C° 0.9 mm 3 mps 738 mmHg 73%
    22:00 +29°C° 0.1 mm 3 mps 738 mmHg 73%
    23:00 +28°C° 0.1 mm 3 mps 738 mmHg 74%

    Day after tomorrow, 24 March, Sunday

    Time Temperature Precipitation Wind Pressure Humidity
    00:00 +28°C° 0.1 mm 3 mps 738 mmHg 75%
    01:00 +28°C° 0 mm 3 mps 737 mmHg 77%
    02:00 +28°C° 0 mm 2 mps 737 mmHg 79%
    03:00 +28°C° 0 mm 1 mps 736 mmHg 81%
    04:00 +27°C° 0 mm 2 mps 737 mmHg 82%
    05:00 +27°C° 0 mm 2 mps 737 mmHg 84%
    06:00 +27°C° 0 mm 2 mps 737 mmHg 85%
    07:00 +29°C° 0 mm 2 mps 738 mmHg 79%
    08:00 +30°C° 0 mm 3 mps 738 mmHg 73%
    09:00 +33°C° 0 mm 3 mps 739 mmHg 66%
    10:00 +35°C° 0 mm 3 mps 739 mmHg 58%
    11:00 +37°C° 0 mm 3 mps 738 mmHg 50%
    12:00 +38°C° 0 mm 2 mps 738 mmHg 42%
    13:00 +38°C° 0 mm 3 mps 737 mmHg 41%
    14:00 +38°C° 0 mm 3 mps 736 mmHg 41%
    15:00 +38°C° 0 mm 3 mps 735 mmHg 40%
    16:00 +37°C° 0.2 mm 4 mps 735 mmHg 48%
    17:00 +35°C° 0.2 mm 5 mps 736 mmHg 55%
    18:00 +33°C° 0.2 mm 5 mps 736 mmHg 62%
    19:00 +32°C° 0.4 mm 5 mps 737 mmHg 66%
    20:00 +30°C° 0.4 mm 5 mps 738 mmHg 69%
    21:00 +29°C° 0.4 mm 4 mps 739 mmHg 73%
    22:00 +29°C° 0.3 mm 4 mps 739 mmHg 74%
    23:00 +29°C° 0.3 mm 4 mps 739 mmHg 74%

    25 March, Monday

    Time Temperature Precipitation Wind Pressure Humidity
    00:00 +28°C° 0.3 mm 4 mps 738 mmHg 75%
    01:00 +28°C° 0 mm 4 mps 738 mmHg 75%
    02:00 +28°C° 0 mm 4 mps 737 mmHg 76%
    03:00 +28°C° 0 mm 3 mps 736 mmHg 76%
    04:00 +28°C° 0 mm 3 mps 737 mmHg 77%
    05:00 +28°C° 0 mm 2 mps 737 mmHg 78%
    06:00 +28°C° 0 mm 1 mps 738 mmHg 78%
    07:00 +29°C° 0 mm 2 mps 738 mmHg 72%
    08:00 +30°C° 0 mm 2 mps 739 mmHg 66%
    09:00 +33°C° 0 mm 3 mps 740 mmHg 59%
    10:00 +34°C° 0 mm 3 mps 739 mmHg 53%
    11:00 +36°C° 0 mm 3 mps 739 mmHg 47%
    12:00 +38°C° 0 mm 3 mps 738 mmHg 41%
    13:00 +38°C° 0 mm 3 mps 737 mmHg 40%
    14:00 +38°C° 0 mm 3 mps 736 mmHg 39%
    15:00 +38°C° 0 mm 2 mps 736 mmHg 39%
    16:00 +37°C° 0 mm 3 mps 736 mmHg 42%
    17:00 +36°C° 0 mm 3 mps 736 mmHg 46%
    18:00 +35°C° 0 mm 4 mps 736 mmHg 49%
    19:00 +33°C° 0.5 mm 3 mps 737 mmHg 57%
    20:00 +30°C° 0.5 mm 3 mps 737 mmHg 65%
    21:00 +29°C° 0.5 mm 3 mps 738 mmHg 73%
    22:00 +28°C° 0.2 mm 3 mps 738 mmHg 76%
    23:00 +28°C° 0.2 mm 2 mps 738 mmHg 79%

    26 March, Tuesday

    Time Temperature Precipitation Wind Pressure Humidity
    00:00 +28°C° 0.2 mm 2 mps 738 mmHg 81%
    01:00 +28°C° 0 mm 2 mps 737 mmHg 83%
    02:00 +28°C° 0 mm 2 mps 737 mmHg 85%
    03:00 +27°C° 0 mm 2 mps 736 mmHg 86%
    04:00 +27°C° 0 mm 2 mps 737 mmHg 87%
    05:00 +27°C° 0 mm 2 mps 737 mmHg 89%
    06:00 +27°C° 0 mm 1 mps 737 mmHg 90%
    07:00 +28°C° 0 mm 2 mps 738 mmHg 80%
    08:00 +30°C° 0 mm 2 mps 738 mmHg 71%
    09:00 +32°C° 0 mm 2 mps 739 mmHg 62%
    10:00 +35°C° 0 mm 2 mps 738 mmHg 54%
    11:00 +37°C° 0 mm 2 mps 738 mmHg 46%
    12:00 +39°C° 0 mm 2 mps 737 mmHg 38%
    13:00 +39°C° 0 mm 2 mps 737 mmHg 36%
    14:00 +40°C° 0 mm 2 mps 736 mmHg 34%
    15:00 +40°C° 0 mm 3 mps 735 mmHg 32%
    16:00 +39°C° 0 mm 3 mps 736 mmHg 39%
    17:00 +37°C° 0 mm 4 mps 736 mmHg 45%
    18:00 +35°C° 0 mm 4 mps 736 mmHg 52%
    19:00 +34°C° 0 mm 4 mps 737 mmHg 58%
    20:00 +32°C° 0 mm 4 mps 737 mmHg 64%
    21:00 +30°C° 0 mm 4 mps 738 mmHg 70%
    22:00 +30°C° 0 mm 3 mps 738 mmHg 71%
    23:00 +29°C° 0 mm 3 mps 738 mmHg 73%

    27 March, Wednesday

    Time Temperature Precipitation Wind Pressure Humidity
    00:00 +29°C° 0 mm 3 mps 737 mmHg 75%
    01:00 +29°C° 0 mm 3 mps 737 mmHg 76%
    02:00 +29°C° 0 mm 3 mps 737 mmHg 77%
    03:00 +28°C° 0 mm 3 mps 736 mmHg 78%
    04:00 +28°C° 0 mm 2 mps 737 mmHg 79%
    05:00 +28°C° 0 mm 2 mps 737 mmHg 80%
    06:00 +28°C° 0 mm 1 mps 738 mmHg 82%
    07:00 +29°C° 0 mm 2 mps 738 mmHg 75%
    08:00 +31°C° 0 mm 2 mps 739 mmHg 68%
    09:00 +32°C° 0 mm 2 mps 740 mmHg 61%
    10:00 +35°C° 0 mm 2 mps 739 mmHg 56%
    11:00 +35°C° 0 mm 1 mps 739 mmHg 51%
    12:00 +37°C° 0 mm 1 mps 739 mmHg 46%
    13:00 +36°C° 0 mm 1 mps 738 mmHg 47%
    14:00 +36°C° 0 mm 1 mps 737 mmHg 47%
    15:00 +36°C° 0 mm 1 mps 736 mmHg 48%
    16:00 +36°C° 0.2 mm 2 mps 737 mmHg 51%
    17:00 +35°C° 0.2 mm 2 mps 737 mmHg 55%
    18:00 +34°C° 0.2 mm 3 mps 737 mmHg 58%
    19:00 +33°C° 0.1 mm 3 mps 738 mmHg 62%
    20:00 +31°C° 0.1 mm 3 mps 738 mmHg 67%
    21:00 +30°C° 0.1 mm 4 mps 739 mmHg 71%
    22:00 +30°C° 0.6 mm 3 mps 739 mmHg 74%
    23:00 +29°C° 0.6 mm 3 mps 738 mmHg 77%
    Show more